STARLINK-5036 (53917 NORAD) Tracking and Keplerian Element Data

This shows tracking and keplerian element data for the satellite.

Feedback or suggestion? Click here.




ElementValue
Catalog53917
NameSTARLINK-5036
Epoch Orbit130
Epoch Day324.91667824
Epoch Year2022
RAAN331.1463
Inclination53.2132
Eccentricity0.0004073
Argument of Perigee1.97
Mean Anonmoly12.1885
Mean Motion15.73143908
Decay Rate0.00086052
L11 53917U 22119AH 22324.91667824 .00086052 00000+0 61254-3 0 9997
L22 53917 53.2132 331.1463 0004073 1.9700 12.1885 15.73143908 1305



Live tracking and technical data element details for STARLINK-5036 (NORAD 53917). STARLINK-5036 can be tracked NOW for your location showing map with azimuth and elevation plus other details from your city location.







IsCatalogInMostPopularTable: catalog: 53917, numindb: 1
Update: records affected: 1



GetName: 53917 STARLINK-5036

Hit Count: updated at: Fri, 09 Dec 2022 20:25:45 GMT